�N����,����,�~����,�C��,���x,�C��,����,���ϕ���,�ő�u�ԕ���,�ő厞����,���˗�,�I�_���x,�n�����x,�ő啗���N��,DTYPE
"19/06/12","00:10",0.0,18.1,88.6,1001.0,319.9,1.5,2.0,323.0,0.00,16.2,20.8,"00:05:52",1
"19/06/12","00:20",0.0,18.1,88.7,1001.0,321.3,2.0,2.7,324.9,0.00,16.2,20.9,"00:13:04",1
"19/06/12","00:30",0.0,18.0,88.8,1000.8,328.8,1.7,3.9,337.6,0.00,16.2,20.7,"00:29:12",1
"19/06/12","00:40",0.0,18.0,89.1,1000.8,330.1,1.6,2.5,337.5,0.00,16.2,20.7,"00:37:28",1
"19/06/12","00:50",0.0,18.0,89.1,1000.8,331.0,2.0,3.3,335.8,0.00,16.2,20.9,"00:48:56",1
"19/06/12","01:00",0.0,17.9,89.2,1000.8,324.4,2.1,3.3,333.0,0.00,16.1,20.6,"00:51:28",1
"19/06/12","01:10",0.0,17.8,89.5,1001.0,326.0,1.8,3.4,325.7,0.00,16.1,20.7,"01:08:32",1
"19/06/12","01:20",0.0,17.7,89.6,1001.0,283.0,1.0,1.6,316.7,0.00,16.0,20.8,"01:10:40",1
"19/06/12","01:30",0.0,17.6,89.7,1001.0,300.1,1.1,1.6,319.4,0.00,15.9,20.6,"01:27:04",1
"19/06/12","01:40",0.0,17.5,90.0,1000.8,312.4,1.6,2.5,337.1,0.00,15.9,20.5,"01:36:00",1
"19/06/12","01:50",0.0,17.5,90.3,1001.0,320.5,1.7,2.6,314.9,0.00,15.9,20.5,"01:40:48",1
"19/06/12","02:00",0.0,17.7,90.3,1000.8,324.7,1.8,3.7,339.6,0.00,16.1,20.4,"01:55:28",1
"19/06/12","02:10",0.0,17.7,90.1,1000.8,325.3,2.0,3.2,338.8,0.00,16.1,20.7,"02:01:44",1
"19/06/12","02:20",0.0,17.7,89.9,1001.2,329.9,2.0,3.4,314.7,0.00,16.1,20.4,"02:14:00",1
"19/06/12","02:30",0.0,17.7,89.9,1001.2,322.4,2.1,3.2,322.8,0.00,16.1,20.3,"02:25:36",1
"19/06/12","02:40",0.0,17.8,90.0,1001.5,318.8,1.8,2.9,331.5,0.00,16.2,20.5,"02:32:24",1
"19/06/12","02:50",0.0,17.8,90.0,1001.2,331.6,2.0,3.3,335.6,0.00,16.2,20.4,"02:40:08",1
"19/06/12","03:00",0.0,17.8,89.9,1001.2,328.6,1.8,2.9,321.1,0.00,16.2,20.4,"02:51:36",1
"19/06/12","03:10",0.0,17.7,89.9,1001.2,317.4,2.0,3.1,326.4,0.00,16.1,20.4,"03:04:32",1
"19/06/12","03:20",0.0,17.8,90.0,1001.5,314.0,1.6,2.6,321.6,0.00,16.2,20.4,"03:10:08",1
"19/06/12","03:30",0.0,17.7,90.0,1001.7,304.4,1.2,2.2,319.5,0.00,16.1,20.2,"03:23:28",1
"19/06/12","03:40",0.0,17.7,90.0,1001.2,312.3,1.8,3.1,336.4,0.00,16.1,20.2,"03:32:32",1
"19/06/12","03:50",0.0,17.6,89.9,1001.2,317.7,1.7,2.7,330.3,0.00,16.0,20.1,"03:40:56",1
"19/06/12","04:00",0.0,17.5,89.9,1001.2,311.5,1.7,3.3,324.5,0.00,15.9,20.3,"03:52:24",1
"19/06/12","04:10",0.0,17.3,90.0,1001.0,289.7,1.1,1.7,298.9,0.00,15.7,20.2,"04:02:08",1
"19/06/12","04:20",0.0,17.1,90.7,1001.5,275.6,1.0,1.8,252.2,0.00,15.6,20.2,"04:10:02",1
"19/06/12","04:30",0.0,17.0,90.9,1001.5,278.6,1.1,2.0,250.0,0.00,15.5,19.9,"04:20:08",1
"19/06/12","04:40",0.0,17.2,91.0,1001.5,319.4,1.8,3.2,318.2,0.00,15.8,19.9,"04:37:52",1
"19/06/12","04:50",0.0,17.3,91.1,1001.5,316.5,1.6,2.6,317.0,0.00,15.9,20.2,"04:47:36",1
"19/06/12","05:00",0.0,17.4,91.1,1001.5,331.4,1.7,2.8,355.0,0.00,16.0,20.1,"04:55:36",1
"19/06/12","05:10",0.0,17.5,91.0,1001.5,331.8,2.2,3.6,331.7,0.00,16.1,19.9,"05:01:12",1
"19/06/12","05:20",0.0,17.5,90.9,1001.7,330.5,2.7,4.4,328.4,0.00,16.0,20.1,"05:10:32",1
"19/06/12","05:30",0.0,17.6,90.9,1001.7,325.6,2.1,3.5,323.2,0.00,16.1,20.1,"05:22:24",1
"19/06/12","05:40",0.0,17.7,90.8,1001.9,328.1,2.0,4.0,334.1,0.00,16.2,20.0,"05:34:40",1
"19/06/12","05:50",0.0,17.7,90.5,1001.9,328.6,2.2,4.1,338.8,0.00,16.2,20.1,"05:41:12",1
"19/06/12","06:00",0.0,17.8,90.3,1001.9,320.9,1.8,2.8,341.6,0.00,16.2,20.0,"05:55:28",1
"19/06/12","06:10",0.0,18.0,90.1,1001.9,322.7,1.6,2.4,335.2,0.01,16.4,20.0,"06:01:28",1
"19/06/12","06:20",0.0,18.1,89.8,1002.2,316.3,1.7,2.2,317.7,0.03,16.4,19.8,"06:11:36",1
"19/06/12","06:30",0.0,18.2,89.7,1002.4,308.9,1.3,2.8,332.9,0.04,16.5,20.1,"06:22:16",1
"19/06/12","06:40",0.0,18.4,89.2,1002.2,310.8,1.1,2.0,335.7,0.04,16.6,20.1,"06:35:12",1
"19/06/12","06:50",0.0,18.4,88.9,1002.2,287.0,1.0,1.7,321.0,0.03,16.6,20.0,"06:42:00",1
"19/06/12","07:00",0.0,18.4,88.7,1002.2,289.0,1.0,1.9,309.9,0.02,16.5,20.0,"06:59:12",1
"19/06/12","07:10",0.0,18.3,88.5,1002.2,287.6,1.0,1.6,249.9,0.03,16.4,20.3,"07:04:48",1
"19/06/12","07:20",0.0,18.5,88.5,1002.6,293.6,1.2,2.0,342.3,0.05,16.6,20.0,"07:17:44",1
"19/06/12","07:30",0.0,19.2,86.7,1002.6,311.3,1.5,3.2,334.9,0.08,17.0,20.2,"07:26:16",1
"19/06/12","07:40",0.0,19.1,86.2,1002.6,321.9,1.7,2.7,335.1,0.09,16.8,20.2,"07:37:36",1
"19/06/12","07:50",0.0,19.3,86.5,1002.4,314.6,1.5,2.7,333.0,0.13,17.0,20.3,"07:41:28",1
"19/06/12","08:00",0.0,20.6,83.1,1002.6,325.9,1.3,2.2,347.5,0.22,17.7,20.3,"07:55:20",1
"19/06/12","08:10",0.0,20.5,81.4,1002.4,307.3,0.8,2.9,338.6,0.17,17.2,20.3,"08:00:16",1
"19/06/12","08:20",0.0,20.9,81.0,1002.4,322.8,0.6,1.7,344.4,0.21,17.6,20.5,"08:14:08",1
"19/06/12","08:30",0.0,21.4,78.7,1001.9,264.5,0.8,2.0,229.5,0.31,17.6,20.6,"08:25:52",1
"19/06/12","08:40",0.0,21.6,73.6,1001.7,188.6,0.3,1.9,234.7,0.33,16.7,20.5,"08:33:04",1
"19/06/12","08:50",0.0,21.6,75.0,1001.5,165.4,0.5,1.4,117.0,0.33,17.0,20.8,"08:48:32",1
"19/06/12","09:00",0.0,22.2,71.9,1001.5,179.1,0.8,2.4,225.5,0.40,16.9,20.9,"08:53:44",1
"19/06/12","09:10",0.0,22.6,71.8,1001.0,184.8,1.1,2.6,229.3,0.45,17.3,21.2,"09:03:52",1
"19/06/12","09:20",0.0,22.7,70.6,1000.5,179.1,0.7,2.1,174.1,0.42,17.1,21.3,"09:19:04",1
"19/06/12","09:30",0.0,23.5,69.8,1000.8,129.7,0.6,1.4,5.8,0.39,17.7,21.5,"09:20:02",1
"19/06/12","09:40",0.0,23.1,68.0,1001.2,87.4,1.0,2.6,342.4,0.45,16.9,21.6,"09:31:20",1
"19/06/12","09:50",0.0,23.9,70.0,1001.0,159.8,0.8,1.9,223.1,0.51,18.1,21.6,"09:46:00",1
"19/06/12","10:00",0.0,23.8,65.6,1001.2,77.5,1.1,2.8,42.0,0.52,17.0,21.9,"09:57:04",1
"19/06/12","10:10",0.0,24.2,68.5,1001.0,4.6,0.6,1.9,350.0,0.31,18.1,22.1,"10:05:36",1
"19/06/12","10:20",0.0,23.1,65.2,1000.8,286.0,1.2,3.4,310.2,0.35,16.3,22.2,"10:15:04",1
"19/06/12","10:30",0.0,23.0,65.6,1000.3,301.1,1.3,3.2,328.9,0.26,16.3,22.2,"10:24:08",1
"19/06/12","10:40",0.0,22.6,67.0,1000.5,291.8,1.5,3.2,339.0,0.15,16.2,22.3,"10:38:00",1
"19/06/12","10:50",0.0,22.8,67.1,1000.8,305.3,1.2,2.5,319.7,0.12,16.4,22.3,"10:47:36",1
"19/06/12","11:00",0.0,22.7,66.5,1000.5,329.2,1.3,3.3,351.7,0.13,16.2,22.5,"10:50:56",1
"19/06/12","11:10",0.0,23.0,66.2,1000.5,309.4,1.0,1.9,316.6,0.14,16.4,22.8,"11:03:36",1
"19/06/12","11:20",0.0,23.2,65.1,1000.8,304.0,1.1,2.1,321.8,0.18,16.3,22.6,"11:16:08",1
"19/06/12","11:30",0.0,23.7,66.0,1000.8,321.0,1.5,3.3,341.8,0.23,17.0,22.6,"11:23:36",1
"19/06/12","11:40",0.0,23.9,64.0,1000.3,304.4,1.1,2.4,340.4,0.30,16.7,22.7,"11:36:16",1
"19/06/12","11:50",0.0,24.4,65.0,1000.3,353.7,1.5,4.0,0.1,0.32,17.4,22.9,"11:47:52",1
"19/06/12","12:00",0.0,23.6,63.3,1000.3,353.4,1.5,3.7,331.7,0.28,16.3,22.9,"11:58:56",1
"19/06/12","12:10",0.0,23.7,63.7,1000.0,350.2,2.0,4.5,353.3,0.34,16.5,23.1,"12:06:08",1
"19/06/12","12:20",0.0,23.9,64.4,1000.0,353.5,1.6,2.9,331.7,0.22,16.8,23.0,"12:18:40",1
"19/06/12","12:30",0.0,24.7,59.4,1000.0,346.1,1.3,3.4,332.2,0.44,16.3,23.2,"12:22:48",1
"19/06/12","12:40",0.0,25.5,57.9,999.6,16.0,1.1,2.1,60.6,0.62,16.6,23.4,"12:33:52",1
"19/06/12","12:50",0.0,24.9,56.7,1000.3,346.7,1.6,3.9,0.6,0.50,15.8,23.7,"12:49:20",1
"19/06/12","13:00",0.0,24.5,56.8,1000.0,21.9,1.6,3.5,13.1,0.30,15.4,23.6,"12:52:16",1
"19/06/12","13:10",0.0,24.1,58.5,999.3,344.2,1.7,3.3,347.3,0.15,15.5,24.0,"13:04:56",1
"19/06/12","13:20",0.0,24.2,59.6,1000.0,328.2,1.5,2.8,347.2,0.13,15.9,23.8,"13:12:48",1
"19/06/12","13:30",0.0,24.3,58.4,999.8,333.7,1.6,3.6,342.2,0.12,15.7,23.7,"13:27:36",1
"19/06/12","13:40",0.0,24.5,58.7,1000.0,274.8,1.0,2.6,231.7,0.16,15.9,23.8,"13:36:24",1
"19/06/12","13:50",0.0,25.3,59.2,999.3,326.1,1.1,2.7,335.4,0.29,16.8,23.9,"13:45:36",1
"19/06/12","14:00",0.0,25.6,55.1,999.3,347.1,1.5,3.3,353.5,0.40,16.0,23.7,"13:57:04",1
"19/06/12","14:10",0.0,26.2,55.0,999.1,350.5,1.2,2.9,10.3,0.48,16.5,24.1,"14:08:16",1
"19/06/12","14:20",0.0,25.8,59.3,999.3,351.5,1.6,3.3,316.1,0.34,17.3,23.8,"14:17:20",1
"19/06/12","14:30",0.0,25.2,57.3,999.3,355.4,1.6,3.2,350.7,0.25,16.2,24.2,"14:21:36",1
"19/06/12","14:40",0.0,25.8,57.2,998.9,358.1,1.7,3.9,354.1,0.34,16.7,24.1,"14:39:36",1
"19/06/12","14:50",0.0,26.2,58.1,999.1,354.6,1.7,3.7,358.1,0.39,17.4,24.1,"14:48:32",1
"19/06/12","15:00",0.0,26.0,57.9,999.1,343.0,2.0,5.8,342.6,0.45,17.1,24.4,"14:58:24",1
"19/06/12","15:10",0.0,26.4,58.1,999.1,349.7,2.6,5.6,3.3,0.51,17.5,24.5,"15:03:44",1
"19/06/12","15:20",0.0,25.9,56.8,998.9,10.9,2.5,4.7,9.1,0.51,16.7,24.6,"15:19:12",1
"19/06/12","15:30",0.0,26.5,58.0,999.1,7.3,1.8,4.4,351.2,0.47,17.6,24.5,"15:22:40",1
"19/06/12","15:40",0.0,25.5,56.9,999.3,349.2,2.2,5.8,337.3,0.36,16.4,24.7,"15:38:24",1
"19/06/12","15:50",0.0,24.6,61.7,998.6,343.6,2.5,5.4,318.2,0.22,16.8,24.7,"15:49:12",1
"19/06/12","16:00",0.0,24.4,62.5,999.6,346.9,3.0,7.5,338.1,0.20,16.8,24.7,"15:51:20",1
"19/06/12","16:10",0.0,24.3,61.7,999.6,343.5,3.2,6.2,341.2,0.22,16.5,24.7,"16:02:40",1
"19/06/12","16:20",0.0,24.9,62.9,1000.0,344.7,3.2,6.6,352.0,0.33,17.4,24.7,"16:17:52",1
"19/06/12","16:30",0.0,24.0,63.2,1000.3,339.2,3.0,5.0,342.7,0.11,16.6,24.7,"16:28:32",1
"19/06/12","16:40",0.0,25.4,60.3,1000.5,336.7,2.6,4.8,321.2,0.31,17.2,24.6,"16:31:12",1
"19/06/12","16:50",0.0,25.4,58.4,1000.0,343.0,2.3,4.7,350.2,0.29,16.7,24.6,"16:44:08",1
"19/06/12","17:00",0.0,24.6,60.8,1000.5,339.0,3.1,6.8,327.5,0.23,16.6,24.6,"16:56:16",1
"19/06/12","17:10",0.0,24.4,60.5,1000.3,340.6,2.7,5.4,330.4,0.20,16.3,24.5,"17:07:52",1
"19/06/12","17:20",0.0,24.4,59.7,1000.0,346.3,2.8,5.5,337.3,0.04,16.1,24.4,"17:19:36",1
"19/06/12","17:30",0.0,24.4,61.0,1000.3,327.2,2.8,5.9,338.3,0.02,16.4,24.4,"17:22:00",1
"19/06/12","17:40",0.0,24.2,59.9,1000.3,345.3,2.6,5.6,318.0,0.02,16.0,24.3,"17:31:12",1
"19/06/12","17:50",0.0,24.0,61.2,1000.5,348.9,2.5,7.0,29.6,0.02,16.1,24.2,"17:41:04",1
"19/06/12","18:00",0.0,23.6,61.3,1000.5,341.6,2.7,5.8,324.7,0.01,15.8,24.3,"17:57:52",1
"19/06/12","18:10",0.0,23.3,61.4,1000.8,348.5,3.1,6.8,340.8,0.01,15.5,24.3,"18:02:00",1
"19/06/12","18:20",0.0,22.8,61.6,1000.8,332.4,3.4,7.7,319.8,0.01,15.1,24.0,"18:16:24",1
"19/06/12","18:30",0.0,22.7,62.8,1001.0,336.4,3.1,7.1,334.4,0.01,15.3,23.8,"18:22:00",1
"19/06/12","18:40",0.0,22.5,63.0,1001.5,337.5,3.0,5.0,324.9,0.01,15.2,23.8,"18:32:40",1
"19/06/12","18:50",0.0,22.3,63.9,1001.5,321.4,2.3,5.0,321.8,0.01,15.2,23.4,"18:45:44",1
"19/06/12","19:00",0.0,21.7,65.4,1001.5,328.9,2.2,4.8,346.5,0.00,15.0,23.6,"18:54:00",1
"19/06/12","19:10",0.0,21.4,66.7,1001.9,329.2,2.7,4.4,338.9,0.00,15.0,23.3,"19:04:24",1
"19/06/12","19:20",0.0,21.1,68.0,1001.9,334.0,2.3,4.0,341.7,0.00,15.0,23.4,"19:12:24",1
"19/06/12","19:30",0.0,20.9,69.1,1002.2,333.4,2.3,4.9,335.2,0.00,15.1,23.2,"19:20:48",1
"19/06/12","19:40",0.0,20.7,69.7,1001.9,333.1,2.2,4.7,338.2,0.00,15.0,22.9,"19:33:36",1
"19/06/12","19:50",0.0,20.4,70.5,1002.4,334.4,1.7,4.0,319.6,0.00,14.9,23.0,"19:49:44",1
"19/06/12","20:00",0.0,20.2,71.7,1002.2,320.9,1.8,3.6,349.5,0.00,15.0,22.8,"19:59:04",1
"19/06/12","20:10",0.0,20.1,72.4,1002.9,324.5,2.7,5.6,332.4,0.00,15.0,22.7,"20:08:56",1
"19/06/12","20:20",0.0,19.9,73.2,1003.4,332.9,2.1,5.1,328.0,0.00,15.0,22.7,"20:10:24",1
"19/06/12","20:30",0.0,19.7,74.2,1003.6,328.7,1.3,4.1,331.4,0.00,15.0,22.4,"20:24:56",1
"19/06/12","20:40",0.0,19.2,74.6,1003.6,296.9,0.8,1.7,324.9,0.00,14.6,22.3,"20:32:40",1
"19/06/12","20:50",0.0,19.1,76.6,1003.8,320.2,1.3,2.9,326.7,0.00,14.9,22.2,"20:48:24",1
"19/06/12","21:00",0.0,19.1,76.9,1004.1,315.2,1.0,3.3,311.5,0.00,15.0,22.1,"20:59:52",1
"19/06/12","21:10",0.0,19.1,76.9,1004.1,323.8,1.5,3.3,337.2,0.00,15.0,22.0,"21:01:44",1
"19/06/12","21:20",0.0,19.1,77.7,1004.5,339.5,1.6,4.3,336.5,0.00,15.2,22.2,"21:15:28",1
"19/06/12","21:30",0.0,19.1,77.9,1004.5,327.0,1.6,3.6,318.2,0.00,15.2,21.9,"21:27:28",1
"19/06/12","21:40",0.0,18.9,78.6,1004.5,316.1,1.5,2.5,308.3,0.00,15.1,21.8,"21:39:44",1
"19/06/12","21:50",0.0,18.7,78.9,1004.8,334.0,1.1,2.7,325.2,0.00,15.0,21.7,"21:40:08",1
"19/06/12","22:00",0.0,18.3,80.4,1004.8,292.4,1.1,2.0,324.5,0.00,14.9,21.7,"21:55:20",1
"19/06/12","22:10",0.0,18.1,81.6,1005.0,286.0,1.2,2.4,327.7,0.00,14.9,21.6,"22:05:52",1
"19/06/12","22:20",0.0,17.8,81.7,1005.0,313.5,1.5,2.4,332.3,0.00,14.7,21.3,"22:13:52",1
"19/06/12","22:30",0.0,17.5,83.7,1005.0,309.5,1.2,1.9,326.0,0.00,14.8,21.4,"22:22:16",1
"19/06/12","22:40",0.0,17.1,84.5,1005.0,290.0,0.8,1.3,324.7,0.00,14.5,21.2,"22:32:16",1
"19/06/12","22:50",0.0,16.9,85.9,1004.8,273.6,0.7,1.1,253.5,0.00,14.6,21.2,"22:40:40",1
"19/06/12","23:00",0.0,16.7,86.6,1004.8,258.0,0.3,0.8,242.2,0.00,14.5,21.0,"22:59:36",1
"19/06/12","23:10",0.0,16.9,88.0,1004.8,321.0,1.1,1.8,338.2,0.00,14.9,21.0,"23:08:08",1
"19/06/12","23:20",0.0,16.8,87.5,1005.2,305.6,1.3,1.9,321.1,0.00,14.8,20.9,"23:11:20",1
"19/06/12","23:30",0.0,16.7,88.1,1004.8,322.8,1.1,2.1,331.3,0.00,14.8,20.8,"23:29:04",1
"19/06/12","23:40",0.0,16.7,88.8,1005.2,318.3,1.0,1.4,313.5,0.00,14.9,20.7,"23:36:16",1
"19/06/12","23:50",0.0,16.6,90.0,1005.2,307.6,1.1,1.6,323.4,0.00,15.0,20.6,"23:43:36",1
"19/06/12","24:00",0.0,16.4,89.1,1005.0,303.5,0.8,1.2,303.7,0.00,14.6,20.6,"23:50:56",1
